Tracking 30701 objects as of 14-Jun-2025
HD Live streaming from Space Station
objects crossing your sky now

STARLINK-5375

Track STARLINK-5375 now!
10-day predictions
STARLINK-5375 is classified as:


NORAD ID: 56140
Int'l Code: 2023-046BA
Perigee: 565.5 km
Apogee: 567.1 km
Inclination: 43.0 °
Period: 95.8 minutes
Semi major axis: 6937 km
RCS: Unknown
Launch date: March 29, 2023
Source: United States (US)
Launch site: AIR FORCE EASTERN TEST RANGE (AFETR)
Your satellite tracking list
Your tracking list is empty




NASA's NSSDC Master Catalog

Two Line Element Set (TLE):
1 56140U 23046BA  25165.45561154 -.00000843  00000-0 -47402-4 0  9999
2 56140  42.9990 163.3920 0001167 270.5497  89.5211 15.02520348121868
Source of the keplerian elements: AFSPC